Weather History for Alturas, CA

Change the Weather History Date:

Monday, March 10, 2014

  Actual Average Record
Temperature  
Mean Temperature 38 °F 38 °F  
Max Temperature 47 °F 51 °F 77 °F (1916)
Min Temperature 28 °F 25 °F -3 °F (1974)
Degree Days  
Heating Degree Days 27 27  
Month to date heating degree days 217 277  
Since 1 July heating degree days 4982 5144  
Cooling Degree Days 0 0  
Month to date cooling degree days 0 0  
Year to date cooling degree days 0 0  
Moisture  
Dew Point 31 °F    
Average Humidity 71    
Maximum Humidity 92    
Minimum Humidity 49    
Precipitation  
Precipitation 0.48 in 0.04 in 0.60 in (1952)
Month to date precipitation 1.25 0.46  
Year to date precipitation 2.85 3.56  
Sea Level Pressure  
Sea Level Pressure 30.14 in    
Wind  
Wind Speed 10 mph (WSW)    
Max Wind Speed 24 mph    
Max Gust Speed 35 mph    
Visibility 7 miles    
Events Fog , Rain , Snow    
T = Trace of Precipitation, MM = Missing Value Source: NWS Daily Summary

Daily Weather History Graph

Daily Weather History Graph

Search for Another Location

Airport:

Trip Planner

Search our weather history database for the weather conditions in past years. The results will help you decide how hot, cold, wet, or windy it might be!

Date:

Astronomy

Mar. 10, 2014 Rise Set
Actual Time 7:22 AM PDT 7:03 PM PDT
Civil Twilight 6:54 AM PDT 7:31 PM PDT
Nautical Twilight 6:22 AM PDT 8:03 PM PDT
Astronomical Twilight 5:50 AM PDT 8:35 PM PDT
Moon 1:48 PM PDT (3/10) 3:40 AM PDT (3/10)
Length of Visible Light 12h 36m
Length of Day
11h 41m
Waxing Gibbous, 71% of the Moon is Illuminated
Mar 10
Waxing Gibbous
Mar 16
Full
Mar 23
Last Quarter
Mar 30
New
Apr 7
First Quarter

Hourly Weather History & Observations

Time (PDT) Temp. Windchill Dew Point Humidity Pressure Visibility Wind Dir Wind Speed Gust Speed Precip Events Conditions
12:55 AM 44.1 °F 40.1 °F 37.0 °F 76% 30.02 in 10.0 mi South 6.9 mph - 0.00 in Rain Light Rain
1:08 AM 43.0 °F 36.8 °F 37.0 °F 80% 30.04 in 10.0 mi South 11.5 mph - 0.00 in Rain Light Rain
1:55 AM 43.0 °F 36.4 °F 37.0 °F 80% 29.99 in 10.0 mi South 12.7 mph - 0.00 in   Overcast
2:55 AM 42.1 °F 35.7 °F 36.0 °F 79% 29.98 in 10.0 mi South 11.5 mph - N/A   Overcast
3:55 AM 41.0 °F 34.7 °F 37.0 °F 86% 29.97 in 9.0 mi South 10.4 mph - 0.03 in Rain Rain
4:55 AM 36.0 °F 32.1 °F 33.1 °F 89% 30.03 in 9.0 mi NW 4.6 mph - 0.14 in Snow Light Snow
5:37 AM 33.1 °F 30.0 °F 30.9 °F 92% 30.05 in 2.5 mi South 3.5 mph - 0.06 in Snow Light Snow
5:47 AM 32.0 °F 28.7 °F 30.9 °F 96% 30.05 in 1.2 mi South 3.5 mph - 0.07 in Snow Light Snow
5:55 AM 32.0 °F 28.7 °F 30.9 °F 96% 30.06 in 1.0 mi SSW 3.5 mph - 0.09 in Snow Light Snow
6:07 AM 32.0 °F - 30.9 °F 96% 30.06 in 1.0 mi Calm Calm - 0.02 in Snow Light Snow
6:32 AM 32.0 °F 27.5 °F 30.9 °F 96% 30.06 in 0.8 mi SSE 4.6 mph - 0.07 in Snow Light Snow
6:55 AM 32.0 °F 26.4 °F 30.9 °F 96% 30.08 in 0.5 mi South 5.8 mph - 0.14 in Fog , Snow Snow
7:23 AM 32.0 °F - 32.0 °F 100% 30.06 in 1.0 mi Calm Calm - 0.05 in Snow Light Snow
7:41 AM 32.0 °F 28.7 °F 32.0 °F 100% 30.06 in 0.8 mi WSW 3.5 mph - 0.06 in Snow Light Snow
7:47 AM 32.0 °F 28.7 °F 30.9 °F 96% 30.07 in 1.0 mi West 3.5 mph - 0.06 in Snow Light Snow
7:55 AM 32.0 °F 28.7 °F 30.9 °F 96% 30.09 in 2.5 mi West 3.5 mph - 0.07 in Snow Light Snow
8:02 AM 32.0 °F - 30.9 °F 96% 30.08 in 7.0 mi Calm Calm - 0.00 in   Overcast
8:17 AM 32.0 °F - 32.0 °F 100% 30.08 in 1.8 mi Calm Calm - 0.00 in Snow Light Snow
8:35 AM 32.0 °F 28.7 °F 30.9 °F 96% 30.09 in 2.5 mi WSW 3.5 mph - 0.00 in Snow Light Snow
8:37 AM 32.0 °F 27.5 °F 30.9 °F 96% 30.09 in 3.0 mi WSW 4.6 mph - 0.00 in Snow Light Snow
8:55 AM 33.1 °F 30.0 °F 32.0 °F 96% 30.11 in 9.0 mi SSW 3.5 mph - 0.01 in   Overcast
9:02 AM 33.1 °F 28.7 °F 30.9 °F 92% 30.10 in 9.0 mi SSW 4.6 mph - N/A   Overcast
9:38 AM 34.0 °F 28.8 °F 32.0 °F 92% 30.13 in 10.0 mi WSW 5.8 mph - N/A   Overcast
9:55 AM 35.1 °F 29.3 °F 32.0 °F 89% 30.14 in 10.0 mi West 6.9 mph - N/A   Overcast
10:05 AM 35.1 °F 30.1 °F 32.0 °F 89% 30.13 in 10.0 mi WSW 5.8 mph - N/A   Overcast
10:55 AM 35.1 °F 25.5 °F 30.9 °F 85% 30.16 in 9.0 mi West 15.0 mph 18.4 mph 0.00 in   Mostly Cloudy
11:41 AM 37.9 °F 30.9 °F 32.0 °F 79% 30.17 in 10.0 mi WNW 10.4 mph - N/A   Overcast
11:48 AM 37.9 °F 29.2 °F 30.9 °F 76% 30.17 in 10.0 mi WNW 15.0 mph - N/A   Overcast
11:55 AM 37.9 °F 29.6 °F 32.0 °F 79% 30.18 in 10.0 mi WNW 13.8 mph - N/A   Overcast
12:55 PM 42.1 °F 34.5 °F 34.0 °F 73% 30.18 in 10.0 mi West 15.0 mph 20.7 mph N/A   Mostly Cloudy
1:07 PM 42.1 °F 34.2 °F 32.0 °F 67% 30.19 in 10.0 mi WNW 16.1 mph 21.9 mph N/A   Mostly Cloudy
1:55 PM 44.1 °F 37.7 °F 33.1 °F 65% 30.18 in 10.0 mi West 12.7 mph 24.2 mph N/A   Mostly Cloudy
2:55 PM 46.0 °F 39.0 °F 30.0 °F 54% 30.19 in 10.0 mi WNW 17.3 mph 24.2 mph N/A   Mostly Cloudy
3:09 PM 42.1 °F 34.9 °F 30.9 °F 65% 30.19 in 10.0 mi North 13.8 mph 24.2 mph N/A   Overcast
3:55 PM 44.1 °F 37.7 °F 32.0 °F 63% 30.20 in 10.0 mi NNW 12.7 mph - N/A   Overcast
4:55 PM 43.0 °F 35.4 °F 24.1 °F 47% 30.23 in 10.0 mi WNW 16.1 mph 24.2 mph N/A   Clear
5:55 PM 41.0 °F 33.1 °F 24.1 °F 51% 30.26 in 10.0 mi NW 15.0 mph - N/A   Scattered Clouds
6:55 PM 39.0 °F 29.9 °F 27.0 °F 62% 30.30 in 10.0 mi WNW 17.3 mph 24.2 mph N/A   Mostly Cloudy
7:55 PM 36.0 °F 27.1 °F 27.0 °F 70% 30.32 in 10.0 mi North 13.8 mph 31.1 mph N/A   Clear
8:55 PM 34.0 °F 25.5 °F 25.0 °F 70% 30.35 in 10.0 mi NW 11.5 mph - N/A   Clear
9:55 PM 32.0 °F 26.4 °F 24.1 °F 73% 30.36 in 10.0 mi NW 5.8 mph - N/A   Clear
10:55 PM 32.0 °F - 23.0 °F 69% 30.38 in 10.0 mi Calm Calm - N/A   Clear
11:55 PM 30.9 °F - 23.0 °F 72% 30.39 in 10.0 mi Calm Calm - N/A   Clear